Flag for U.S.A. Weather past 2 weeks in San Antonio, Texas, U.S.A.

Now
79 °F

Broken clouds.


Feels Like: 82 °F
Forecast: 73 / 78 °F
Wind: 9 mph from Southeast

Location: San Antonio International Airport

Current Time: May 24, 2015 at 9:22:11 PM

Latest Report: May 24, 2015 at 8:51 PM


Visibility: 10 mi

Pressure: 29.81 "Hg

Humidity: 77%

Dew point: 71 °F

Location of San AntonioLocation

Historic Weather in San Antonio — Graph

°F

San Antonio temperature yesterday

Maximum temperature yesterday: 87 °F (at 1:51 PM)
Minimum temperature yesterday: 65 °F (at 9:03 PM)
Average temperature yesterday: 76 °F

Past Weeks' High & Low Weather Summary

 TemperatureHumidityPressure
High88 °F (May 18, 2:51 PM)96% (May 22, 9:51 AM)30.13 "Hg (May 22, 9:51 AM)
Low65 °F (May 22, 2:51 AM)59% (May 23, 1:51 PM)29.70 "Hg (May 9, 7:51 PM)
Average75 °F81%29.93 "Hg
* Reported May 9 7:51 PM — May 24 7:51 PM, San Antonio, Weather by CustomWeather, © 2015

Note: Actual official high and low records may vary slightly from our data, if they occured in-between our weather recording intervals... More about our weather records

Advertising

San Antonio weather history for previous 24 hours

 ConditionsComfort  
Time TempWeatherWind HumidityBarometerVisibility
7:51 PM
Sun, May 24
80 °FPassing clouds.12 mph74%29.80 "Hg10 mi
6:51 PM84 °FPassing clouds.12 mph59%29.78 "Hg10 mi
5:51 PM85 °FScattered clouds.8 mph63%29.78 "Hg10 mi
4:51 PM84 °FScattered clouds.9 mph61%29.79 "Hg10 mi
3:51 PM81 °FScattered clouds.6 mph67%29.81 "Hg10 mi
2:51 PM81 °FBroken clouds.10 mph65%29.83 "Hg10 mi
1:51 PM78 °FMostly cloudy.14 mph69%29.85 "Hg10 mi
12:51 PM77 °FCloudy.16 mph74%29.87 "Hg10 mi
12:04 PM75 °FDrizzle. Mostly cloudy.9 mph85%29.93 "Hg6 mi
11:51 AM74 °FDrizzle. Fog.10 mph88%29.88 "Hg2 mi
10:51 AM71 °FLow clouds.9 mph87%29.88 "Hg10 mi
9:55 AM70 °FMostly cloudy.8 mph87%29.92 "Hg10 mi
8:51 AM68 °FOvercast.No wind84%29.86 "Hg10 mi
7:51 AM66 °FPartly sunny.3 mph90%29.84 "Hg10 mi
6:51 AM66 °FMostly cloudy.3 mph90%29.85 "Hg10 mi
5:51 AM65 °FMostly cloudy.5 mph94%29.84 "Hg10 mi
4:51 AM66 °FMostly cloudy.5 mph87%29.80 "Hg10 mi
3:51 AM67 °FLight rain. Overcast.16 mph85%29.86 "Hg10 mi
2:51 AM73 °FLight rain. Mostly cloudy.8 mph88%29.82 "Hg7 mi
1:51 AM70 °FThunderstorms. Mostly cloudy.16 mph90%29.81 "Hg7 mi
12:51 AM68 °FThunderstorms. Mostly cloudy.10 mph90%29.91 "Hg8 mi
11:57 PM
Sat, May 23
67 °FThunderstorms. Mostly cloudy.14 mph93%29.96 "Hg8 mi
10:51 PM66 °FThunderstorms. Fog.7 mph93%29.91 "Hg6 mi
9:51 PM65 °FStrong thunderstorms. Fog.8 mph94%29.92 "Hg2 mi
9:03 PM65 °FStrong thunderstorms. Fog.7 mph91%30.00 "Hg2 mi
Weather by CustomWeather, © 2015

See weather overviewHow to use our weather pages